Location: Pegwell Bay
(51.3000°N, 1.3833°E)
Time: 02:34:23
(UTC+00:00)

Daily predictions for brighter satellites

Satellite Brightness Start Highest point End
(mag) Time Altitude Azimuth Time Altitude Azimuth Time Altitude Azimuth
Cosmos 1697 Rocket 4.3 02:34:59 30° ENE 02:34:59 30° ENE 02:39:11 10° ESE
Cosmos 2344 4.0 02:37:40 51° ESE 02:37:40 51° ESE 02:45:09 10° NE
ADEOS II 4.4 02:34:09 10° NNE 02:35:25 18° NNE 02:35:25 18° NNE
USA 238 DEB 4.4 02:41:03 46° E 02:41:03 46° E 02:46:34 10° NE
USA 238 4.4 02:41:08 46° E 02:41:08 46° E 02:46:40 10° NE
NOSS 3-2 (A) 4.4 02:44:26 43° ENE 02:44:26 43° ENE 02:49:13 10° NE
Cosmos 1980 Rocket 4.0 02:54:35 21° N 02:56:48 27° NE 03:01:32 10° E
SL-16 R/B 4.5 03:00:37 15° N 03:00:37 15° N 03:02:23 10° N
USA 234 3.4 02:53:43 10° ENE 02:59:22 69° ENE 02:59:22 69° ENE
ADEOS Rocket 3.7 02:58:07 10° SE 03:03:16 44° ENE 03:08:38 10° N
IDEFIX/ARIANE 42P 3.7 03:15:49 10° NNE 03:18:52 36° NNE 03:18:52 36° NNE
MSX 3.8 03:26:27 10° NNE 03:32:03 80° ENE 03:32:03 80° ENE
In-Cosmos 22 4.2 03:35:42 70° ESE 03:35:49 70° E 03:41:17 10° NNE
Cosmos 1833 Rocket 4.0 03:33:50 21° SSE 03:36:57 37° ESE 03:42:05 10° NE
Cosmos 2279 Rocket 3.9 03:30:53 10° N 03:43:01 11° S 03:43:18 10° S
CZ-4B R/B 3.9 03:34:51 10° ESE 03:37:08 22° ENE 03:37:08 22° ENE
NOSS 3-2 (C) 3.3 03:43:22 69° S 03:44:02 78° SE 03:50:44 10° NE
Cosmos 1536 Rocket 4.2 03:48:18 51° NNE 03:48:18 51° NNE 03:51:46 10° NNE
CENTAUR R/B 2.5 03:50:11 60° SSW 03:51:28 84° SE 03:58:48 10° NE
Cosmos 2369 3.7 03:49:30 40° NNW 03:51:37 77° ENE 03:57:17 10° SE
Cosmos 2082 Rocket 3.8 03:55:00 10° SSE 03:59:54 32° ESE 04:04:50 10° NE
SL-16 R/B 4.0 04:00:01 10° NNW 04:04:54 28° NE 04:09:46 10° E
PSLV R/B 3.6 04:00:47 10° NNE 04:05:05 75° ESE 04:05:31 67° SSE
CZ-2C R/B 2.4 04:01:43 10° NNE 04:06:46 79° ESE 04:08:51 35° S
ARIANE 5 R/B 3.8 04:03:06 10° N 04:05:38 25° NNW 04:05:38 25° NNW
ISS -1.9 04:09:06 27° SE 04:09:06 27° SE 04:11:32 10° E
Lacrosse 4 Rocket 1.3 04:18:22 69° N 04:18:22 69° N 04:22:07 10° NNE
ADEOS II 4.1 04:15:02 10° NNW 04:16:21 14° NNW 04:16:21 14° NNW
Cosmos 1697 Rocket 2.6 04:16:50 43° NW 04:18:34 63° WSW 04:24:08 10° SSE
COSMOS 2406 3.1 04:21:37 32° SSW 04:24:22 87° WNW 04:30:05 10° NNE
Lacrosse 5 rocket 1.6 04:25:46 46° S 04:26:16 51° SE 04:29:57 10° ENE
Meteor 2-5 Rocket 4.0 04:22:48 10° S 04:28:30 71° E 04:34:20 10° NNE
FENGYUN 3A 4.2 04:23:20 10° NNE 04:28:45 60° ESE 04:34:06 10° S
Cosmos 2360 Rocket 4.3 04:24:41 10° NNW 04:29:06 23° NE 04:33:30 10° E
USA 238 DEB 3.9 04:28:30 37° W 04:30:55 55° NW 04:37:50 10° NE
USA 238 3.9 04:28:35 37° W 04:31:01 55° NW 04:37:56 10° NE
PAYLOAD A 4.0 04:28:16 10° N 04:33:16 59° WNW 04:35:50 29° SW
NOSS 3-2 (A) 3.9 04:31:50 36° WNW 04:33:50 49° NNW 04:40:35 10° NE
Cosmos 1726 Rocket 3.5 04:33:55 10° N 04:38:24 88° E 04:42:52 10° S
SAR-Lupe-4 3.6 04:35:15 10° SSE 04:38:49 77° ENE 04:42:25 10° NNW
ATLAS 3B R/B 3.0 04:33:16 10° SSW 04:39:44 64° SE 04:46:21 10° NE
Cosmos 1025 Rocket 4.5 04:42:14 23° NW 04:42:14 23° NW 04:44:32 10° N
ERS-2 3.1 04:37:08 10° S 04:39:16 31° SSW 04:39:16 31° SSW
Cosmos 1980 Rocket 2.0 04:36:25 13° NNW 04:41:22 75° WSW 04:46:57 10° SSE
USA 234 3.5 04:36:44 10° ENE 04:43:07 57° N 04:46:42 27° WNW
Abrixas rocket 3.7 04:43:59 22° S 04:43:59 22° S 04:45:36 10° SE
Cosmos 2228 2.9 04:39:12 10° NNW 04:43:32 64° W 04:47:52 10° S
Meteor 2-13 Rocket 4.4 04:40:41 10° S 04:46:50 88° E 04:53:00 10° N
Cosmos 1092 Rocket 4.1 04:41:39 10° S 04:47:49 81° E 04:54:06 10° NNE
Geosat 4.2 04:43:20 10° S 04:48:09 48° WSW 04:51:08 22° NW
ADEOS Rocket 3.3 04:44:04 10° SSW 04:49:01 34° W 04:54:08 10° NNW
ADEOS 3.6 04:44:36 10° NNE 04:49:52 87° ESE 04:55:06 10° SSW
Cosmos 1269 Rocket 4.4 04:49:47 31° W 04:51:35 42° NW 04:56:39 10° NNE
CZ-3 R/B 4.5 04:35:59 13° WSW 04:51:42 25° SSW 04:59:16 10° SSE
Cosmos 2344 3.9 04:47:42 27° W 04:51:54 54° NNW 05:00:28 10° NE
Aureole 3 3.7 04:47:58 10° N 04:51:59 82° E 04:57:06 10° SSE
Nadezhda 4 Rocket 3.9 04:46:02 10° SSW 04:52:06 63° WNW 04:58:13 10° N
Cosmos 1606 Rocket 3.6 04:49:51 10° NNW 04:54:14 54° W 04:58:35 10° S
Cosmos 2219 Rocket 4.5 04:51:09 10° NNW 04:54:56 18° NNE 04:58:41 10° ENE
Cosmos 1400 Rocket 2.6 04:50:58 10° NNW 04:54:56 72° W 04:58:49 10° S
SJ-6F 4.3 04:51:31 10° N 04:55:34 63° WNW 04:59:39 10° SSW
CZ-4B R/B 4.1 04:51:19 10° NNE 04:55:36 77° ESE 04:59:37 10° S
SAR-Lupe-1 3.9 04:53:08 10° S 04:56:42 72° WSW 05:00:18 10° NNW
IDEFIX/ARIANE 42P 4.1 04:56:32 10° NNW 04:59:41 18° NW 04:59:41 18° NW
COSMO-SKYMED 1 2.5 05:02:40 10° S 05:07:00 79° WSW 05:11:23 10° NNW
Cosmos 1300 3.0 05:04:48 10° NNW 05:08:26 41° W 05:12:01 10° SSW
ARGOS Delta rocket 4.2 05:03:30 10° NNE 05:08:55 89° ESE 05:14:25 10° SSW
CZ-4B R/B 2.2 05:06:39 10° SSW 05:09:45 31° W 05:10:17 29° WNW
ALOS 2.2 05:06:57 10° N 05:11:35 62° WNW 05:16:12 10° SSW
Cosmos 2278 4.0 05:06:21 10° NW 05:11:43 45° WSW 05:17:03 10° S
Meteor 2-10 Rocket 3.6 05:08:04 10° N 05:13:07 78° ENE 05:18:12 10° SSE
Cosmos 2322 Rocket 2.8 05:07:44 10° NNW 05:13:22 57° NE 05:18:56 10° SE
Cosmos 1689 Rocket 2.0 05:13:27 10° S 05:16:21 56° W 05:19:14 10° NNW
Cosmos 1674 4.4 05:17:27 16° NW 05:17:27 16° NW 05:19:07 10° NNW
Cosmos 1626 2.8 05:14:34 17° SW 05:16:50 32° WNW 05:20:13 10° N
SL-14 R/B 3.7 05:13:13 10° SW 05:17:01 42° WNW 05:20:53 10° N
Meteor 2-8 Rocket 4.4 05:12:37 10° NNW 05:18:49 78° W 05:24:58 10° S
Cosmos 1833 Rocket 3.0 05:15:37 11° SW 05:20:46 48° NW 05:26:16 10° NNE
deb Chang Zheng 4 3.6 05:17:28 10° N 05:21:38 55° WNW 05:25:48 10° SSW
MOS 1 Rocket 4.1 05:18:11 10° SE 05:22:17 47° ENE 05:26:27 10° N
METEOR-M 4.1 05:19:16 10° N 05:24:34 64° WNW 05:29:50 10° SSW
Cosmos 2084 3.9 05:20:45 10° SSW 05:25:02 66° SE 05:29:27 10° NE
H-2A R/B 4.3 05:22:26 10° NNE 05:26:34 37° E 05:30:31 10° SSE
Cosmos 1315 Rocket 2.9 05:22:35 10° NNW 05:26:44 90° SSE 05:30:52 10° S
SJ-12 3.8 05:23:16 10° N 05:27:24 75° WNW 05:31:30 10° SSW
Cosmos 2058 Rocket 3.3 05:24:24 10° NNW 05:28:44 48° W 05:33:02 10° SSW
SL-19 R/B 3.6 05:26:11 10° N 05:28:57 50° WNW 05:31:44 10° SSW
Elektron 1 3.7 05:27:54 10° SW 05:30:53 82° SE 05:33:59 10° NE
Cosmos 1484 Rocket 3.4 05:27:23 10° N 05:30:55 34° WNW 05:34:24 10° SW
Okean 1-7 Rocket 3.6 05:27:13 10° SSW 05:31:45 69° WNW 05:36:17 10° N
H-2A R/B 3.6 05:29:42 10° NNE 05:33:27 54° E 05:37:13 10° S
NOSS 3-2 (C) 4.2 05:30:50 15° W 05:35:34 40° NNW 05:42:11 10° NE
Cosmos 1553 Rocket 3.9 05:29:54 10° NNW 05:36:03 74° W 05:42:05 10° S
Cosmos 1428 Rocket 4.5 05:30:34 10° SSW 05:36:45 65° WNW 05:42:54 10° N
Cosmos 1461 3.4 05:34:27 10° WSW 05:38:57 51° NW 05:43:37 10° NE
Meteor PRIRODA 3.5 05:36:23 10° N 05:40:02 69° WNW 05:43:40 10° SSW
Meteor 1-24 Rocket 4.0 05:34:44 10° SW 05:40:11 46° WNW 05:45:52 10° N
Cosmos 1892 Rocket 3.9 05:36:15 10° SW 05:40:23 42° WNW 05:44:35 10° N
CREW DRAGON DEMO-1 DEB 3.9 05:40:30 15° W 05:42:30 31° SSW 05:45:12 10° SE
USA 290 3.0 05:39:58 10° WSW 05:42:55 31° WNW 05:45:53 10° N
CENTAUR R/B 3.4 05:37:23 13° W 05:42:56 41° NNW 05:50:09 10° NE
Cosmos 2082 Rocket 2.3 05:38:17 10° SW 05:43:46 53° NW 05:49:18 10° NNE
CZ-2C R/B 3.8 05:40:54 10° NNW 05:44:24 19° NW 05:47:48 10° W
ISS -3.7 05:42:03 12° WSW 05:45:07 82° S 05:48:30 10° E
Cosmos 614 Rocket 3.9 05:40:31 10° SSW 05:45:40 81° WNW 05:50:50 10° NNE
Cosmos 2026 Rocket 4.2 05:43:03 10° SSW 05:49:15 52° WNW 05:55:29 10° N
SL-16 R/B 2.2 05:43:53 10° NNW 05:49:34 73° WSW 05:55:13 10° SSE
Meteor 2-15 4.4 05:46:31 10° NNW 05:52:33 66° W 05:58:32 10° S
Cosmos 2251 Rocket 3.9 05:48:21 10° SW 05:53:27 43° WNW 05:58:32 10° NNE
SKYMED 2 4.5 05:51:33 10° SSW 05:55:18 28° W 05:59:05 10° NW
Meteor 1-31 Rocket 3.8 05:52:16 10° N 05:55:36 27° WNW 05:58:57 10° WSW
Cosmos 1455 2.3 05:52:52 10° NNW 05:56:41 56° W 06:00:28 10° S
Lacrosse 4 Rocket 3.1 05:54:43 10° WNW 05:57:24 17° NNW 06:00:06 10° N
COSMOS 2428 4.3 05:53:17 10° NNW 05:58:24 31° NE 06:03:28 10° ESE
[s.n.46727] 2.6 05:56:57 10° WSW 05:59:42 83° SSE 06:02:27 10° ENE
Cosmos 2333 Rocket 3.6 05:54:30 10° NNW 05:59:46 37° NE 06:05:00 10° ESE
[s.n.46723] 2.6 05:56:58 10° WSW 05:59:47 83° SSE 06:02:36 10° ENE
[s.n.46707] 2.6 05:57:07 10° WSW 05:59:53 83° SSE 06:02:38 10° ENE
[s.n.46708] 2.6 05:57:12 10° WSW 05:59:58 83° SSE 06:02:44 10° ENE
[s.n.46719] 2.6 05:57:18 10° WSW 06:00:03 83° SSE 06:02:49 10° ENE
[s.n.46724] 2.5 05:57:23 10° WSW 06:00:08 83° SSE 06:02:54 10° ENE
[s.n.46687] 2.5 05:57:29 10° WSW 06:00:13 83° SSE 06:03:00 10° ENE
[s.n.46696] 2.6 05:57:35 10° WSW 06:00:20 83° SSE 06:03:05 10° ENE
[s.n.46720] 2.6 05:57:40 10° WSW 06:00:25 84° SSE 06:03:11 10° ENE
[s.n.46676] 2.6 05:57:45 10° WSW 06:00:30 84° SSE 06:03:16 10° ENE
[s.n.46721] 2.5 05:57:51 10° WSW 06:00:36 84° SSE 06:03:22 10° ENE
[s.n.46728] 2.6 05:57:56 10° WSW 06:00:41 84° SSE 06:03:27 10° ENE
[s.n.46690] 2.5 05:58:02 10° WSW 06:00:46 84° SSE 06:03:33 10° ENE
YAOGAN 6 3.2 05:57:06 10° NNE 06:00:47 64° E 06:04:24 10° S
Meteor 2-1 Rocket 4.4 05:55:19 10° NNW 06:00:50 55° W 06:06:26 10° S
[s.n.46694] 2.5 05:58:05 10° WSW 06:00:50 84° SSE 06:03:37 10° ENE
[s.n.46702] 2.5 05:58:13 10° WSW 06:00:58 84° SSE 06:03:44 10° ENE
[s.n.46679] 2.5 05:58:17 10° WSW 06:01:02 84° SSE 06:03:48 10° ENE
[s.n.46704] 2.6 05:58:19 10° WSW 06:01:07 84° SSE 06:03:56 10° ENE
CZ-4B R/B 3.3 05:57:24 10° N 06:01:09 40° WNW 06:05:04 10° SW
[s.n.46712] 2.5 05:58:25 10° WSW 06:01:10 84° SSE 06:03:56 10° ENE
[s.n.46711] 2.5 05:58:34 10° WSW 06:01:19 84° SSE 06:04:05 10° ENE
[s.n.46684] 2.5 05:58:35 10° WSW 06:01:21 84° SSE 06:04:07 10° ENE
Cosmos 1697 Rocket 4.4 05:59:44 10° WNW 06:01:23 11° W 06:03:02 10° WSW
Spot 2 4.2 05:56:55 10° NNE 06:01:25 82° WNW 06:06:12 10° SSW
[s.n.46706] 2.5 05:58:44 10° WSW 06:01:30 85° SSE 06:04:15 10° ENE
[s.n.46678] 2.6 05:58:43 10° WSW 06:01:31 85° S 06:04:21 10° ENE
[s.n.46677] 2.5 05:58:52 10° WSW 06:01:38 85° SSE 06:04:24 10° ENE
[s.n.46671] 2.5 05:58:58 10° WSW 06:01:43 85° SSE 06:04:29 10° ENE
[s.n.46675] 2.5 05:59:04 10° WSW 06:01:48 85° SSE 06:04:35 10° ENE
[s.n.46674] 2.5 05:59:09 10° WSW 06:01:55 85° SSE 06:04:40 10° ENE
[s.n.46698] 2.5 05:59:15 10° WSW 06:02:00 85° SSE 06:04:46 10° ENE
[s.n.46699] 2.6 05:59:17 10° WSW 06:02:04 85° SSE 06:04:54 10° ENE
[s.n.46715] 2.5 05:59:26 10° WSW 06:02:11 85° SSE 06:04:57 10° ENE
[s.n.46714] 2.5 05:59:31 10° WSW 06:02:16 85° SSE 06:05:02 10° ENE
[s.n.46726] 2.5 05:59:36 10° WSW 06:02:21 85° SSE 06:05:08 10° ENE
[s.n.46703] 2.5 05:59:42 10° WSW 06:02:27 85° SSE 06:05:13 10° ENE
[s.n.46713] 2.5 05:59:47 10° WSW 06:02:33 86° SSE 06:05:19 10° ENE
[s.n.46717] 2.5 05:59:53 10° WSW 06:02:38 86° SSE 06:05:25 10° ENE
[s.n.46691] 2.6 05:59:55 10° WSW 06:02:43 86° SSE 06:05:32 10° ENE
[s.n.46693] 2.5 06:00:04 10° WSW 06:02:50 86° SSE 06:05:36 10° ENE
[s.n.46672] 2.5 06:00:10 10° WSW 06:02:55 86° SSE 06:05:41 10° ENE
[s.n.46701] 2.5 06:00:15 10° WSW 06:03:01 86° SSE 06:05:47 10° ENE
[s.n.46685] 2.5 06:00:20 10° WSW 06:03:06 86° SSE 06:05:52 10° ENE
[s.n.46709] 2.5 06:00:26 10° WSW 06:03:12 86° SSE 06:05:58 10° ENE
[s.n.46683] 2.5 06:00:31 10° WSW 06:03:16 86° SSE 06:06:02 10° ENE
[s.n.46695] 2.5 06:00:36 10° WSW 06:03:21 86° SSE 06:06:08 10° ENE
[s.n.46688] 2.5 06:00:42 10° WSW 06:03:29 86° SSE 06:06:14 10° ENE
[s.n.46729] 2.5 06:00:47 10° WSW 06:03:33 87° SSE 06:06:19 10° ENE
[s.n.46697] 2.5 06:00:50 10° WSW 06:03:36 87° SSE 06:06:22 10° ENE
[s.n.46725] 2.5 06:00:55 10° WSW 06:03:40 87° SSE 06:06:27 10° ENE
[s.n.46682] 2.5 06:01:01 10° WSW 06:03:46 87° SSE 06:06:32 10° ENE
[s.n.46680] 2.5 06:01:07 10° WSW 06:03:52 87° SSE 06:06:38 10° ENE
[s.n.46718] 2.5 06:01:12 10° WSW 06:03:57 87° S 06:06:44 10° ENE
[s.n.46710] 2.5 06:01:17 10° WSW 06:04:03 87° SSE 06:06:49 10° ENE
[s.n.46673] 2.5 06:01:28 10° WSW 06:04:14 87° SSE 06:07:01 10° ENE
Cosmos 1626 Rocket 3.6 05:59:51 10° SSW 06:04:18 64° WNW 06:08:46 10° N
[s.n.46700] 2.5 06:01:34 10° WSW 06:04:20 87° SSE 06:07:06 10° ENE
[s.n.46705] 2.5 06:01:40 10° WSW 06:04:25 87° S 06:07:11 10° ENE
[s.n.46692] 2.5 06:01:45 10° WSW 06:04:31 87° SSE 06:07:18 10° ENE
[s.n.46686] 2.5 06:01:51 10° WSW 06:04:37 87° SSE 06:07:23 10° ENE
[s.n.46716] 2.5 06:01:57 10° WSW 06:04:42 88° SSE 06:07:29 10° ENE
[s.n.46722] 2.5 06:02:02 10° WSW 06:04:48 88° SSE 06:07:34 10° ENE
[s.n.46689] 2.5 06:02:08 10° WSW 06:04:53 88° S 06:07:40 10° ENE
[s.n.46681] 2.5 06:02:13 10° WSW 06:04:58 88° S 06:07:45 10° ENE
Lacrosse 5 rocket 1.6 06:01:52 10° W 06:05:27 46° NNW 06:09:15 10° ENE
Cosmos 2237 Rocket 4.3 06:01:50 10° NNW 06:05:54 20° NNE 06:09:57 10° E
Okean O Rocket 2.8 06:02:22 10° NNE 06:06:36 48° E 06:10:50 10° S
Cosmos-2242 3.5 06:02:18 10° N 06:06:41 68° ENE 06:11:02 10° SSE
Cosmos 1602 Rocket 3.6 06:02:52 10° SSW 06:07:18 78° W 06:11:49 10° N
Cosmos 1703 3.3 06:05:23 10° S 06:09:16 87° E 06:13:12 10° N
COSMOS 2406 4.4 06:05:01 10° W 06:09:31 23° NW 06:14:02 10° NNE
